Weather History for KMIE - April, 2013

Change the Weather History Date:

Saturday, April 20, 2013

  Actual Average Record
Temperature  
Mean Temperature 41 °F 53 °F  
Max Temperature 47 °F 64 °F 82 °F (1976)
Min Temperature 34 °F 43 °F 24 °F (1983)
Degree Days  
Heating Degree Days 24 12  
Month to date heating degree days 252 316  
Since 1 July heating degree days 5171 5486  
Cooling Degree Days 0 1  
Month to date cooling degree days 10 3  
Year to date cooling degree days 10 4  
Moisture  
Dew Point 28 °F    
Average Humidity 66    
Maximum Humidity 82    
Minimum Humidity 49    
Precipitation  
Precipitation 0.01 in 0.12 in 1.62 in (1972)
Month to date precipitation 4.18 2.45  
Year to date precipitation 11.08 9.94  
Sea Level Pressure  
Sea Level Pressure 30.15 in    
Wind  
Wind Speed 11 mph (WNW)    
Max Wind Speed 21 mph    
Max Gust Speed 30 mph    
Visibility 10 miles    
Events Snow    
T = Trace of Precipitation, MM = Missing Value Source: NWS Daily Summary

Daily Weather History Graph

Daily Weather History Graph

Search for Another Location

Airport or City:

Trip Planner

Search our weather history database for the weather conditions in past years. The results will help you decide how hot, cold, wet, or windy it might be!

Date:

Astronomy

Apr. 20, 2013 Rise Set
Actual Time 6:55 AM EDT 8:25 PM EDT
Civil Twilight 6:27 AM EDT 8:54 PM EDT
Nautical Twilight 5:52 AM EDT 9:28 PM EDT
Astronomical Twilight 5:16 AM EDT 10:05 PM EDT
Moon 3:08 PM EDT (4/20) 3:45 AM EDT (4/20)
Length of Visible Light 14h 27m
Length of Day
13h 30m
Waxing Gibbous, 71% of the Moon is Illuminated
Apr 20
Waxing Gibbous
Apr 25
Full
May 2
Last Quarter
May 9
New
May 18
First Quarter

Hourly Weather History & Observations

Time (EDT) Temp. Windchill Dew Point Humidity Pressure Visibility Wind Dir Wind Speed Gust Speed Precip Events Conditions
12:00 AM 35.6 °F 27.5 °F 32.0 °F 87% 29.93 in 9.0 mi West 11.5 mph - 0.00 in   Scattered Clouds
12:50 AM 37.4 °F 30.8 °F 33.8 °F 87% 29.94 in 10.0 mi West 9.2 mph - 0.00 in   Overcast
12:53 AM 37.9 °F 31.5 °F 33.1 °F 83% 29.95 in 10.0 mi West 9.2 mph - 0.00 in   Overcast
1:18 AM 37.4 °F 29.3 °F 30.2 °F 75% 29.95 in 10.0 mi WSW 12.7 mph 20.7 mph N/A   Mostly Cloudy
1:49 AM 35.6 °F 24.5 °F 30.2 °F 81% 29.97 in 2.5 mi WNW 20.7 mph 29.9 mph 0.01 in Snow Light Snow
1:53 AM 35.1 °F 24.5 °F 30.0 °F 82% 29.98 in 4.0 mi WNW 18.4 mph 29.9 mph 0.01 in Snow Light Snow
2:53 AM 36.0 °F 27.5 °F 30.0 °F 79% 29.98 in 10.0 mi West 12.7 mph - 0.00 in   Scattered Clouds
3:49 AM 35.6 °F 26.2 °F 28.4 °F 75% 29.99 in 10.0 mi West 15.0 mph 23.0 mph N/A   Mostly Cloudy
3:53 AM 36.0 °F 27.1 °F 28.9 °F 76% 30.00 in 10.0 mi West 13.8 mph 23.0 mph N/A   Mostly Cloudy
4:03 AM 35.6 °F 26.2 °F 28.4 °F 75% 29.99 in 10.0 mi West 15.0 mph - N/A   Mostly Cloudy
4:23 AM 35.6 °F 25.9 °F 28.4 °F 75% 30.00 in 10.0 mi West 16.1 mph - N/A   Mostly Cloudy
4:53 AM 35.1 °F 26.4 °F 28.9 °F 78% 30.02 in 10.0 mi West 12.7 mph - N/A   Scattered Clouds
5:53 AM 35.1 °F 27.9 °F 28.0 °F 76% 30.04 in 10.0 mi West 9.2 mph - N/A   Clear
6:41 AM 33.8 °F 27.0 °F 28.4 °F 81% 30.06 in 10.0 mi West 8.1 mph - N/A   Mostly Cloudy
6:53 AM 34.0 °F 27.2 °F 28.0 °F 79% 30.07 in 10.0 mi West 8.1 mph - N/A   Overcast
7:35 AM 33.8 °F 27.0 °F 28.4 °F 81% 30.09 in 10.0 mi West 8.1 mph - N/A   Scattered Clouds
7:53 AM 34.0 °F 28.8 °F 28.0 °F 79% 30.12 in 10.0 mi West 5.8 mph - N/A   Clear
8:53 AM 36.0 °F 28.0 °F 28.0 °F 73% 30.15 in 10.0 mi West 11.5 mph - N/A   Partly Cloudy
9:24 AM 37.4 °F 29.3 °F 28.4 °F 70% 30.16 in 10.0 mi NW 12.7 mph - N/A   Mostly Cloudy
9:53 AM 37.9 °F 30.0 °F 28.0 °F 68% 30.17 in 10.0 mi WNW 12.7 mph - N/A   Scattered Clouds
10:06 AM 37.4 °F 29.3 °F 28.4 °F 70% 30.17 in 10.0 mi WNW 12.7 mph - N/A   Mostly Cloudy
10:51 AM 39.2 °F 31.2 °F 28.4 °F 65% 30.19 in 10.0 mi West 13.8 mph - N/A   Mostly Cloudy
10:53 AM 39.9 °F 32.5 °F 28.9 °F 65% 30.20 in 10.0 mi WNW 12.7 mph - N/A   Mostly Cloudy
11:14 AM 39.2 °F 33.0 °F 28.4 °F 65% 30.20 in 10.0 mi WNW 9.2 mph 17.3 mph N/A   Overcast
11:46 AM 41.0 °F 32.5 °F 26.6 °F 57% 30.22 in 10.0 mi WNW 17.3 mph 21.9 mph N/A   Scattered Clouds
11:53 AM 39.9 °F 32.1 °F 27.0 °F 60% 30.23 in 10.0 mi WNW 13.8 mph 21.9 mph N/A   Mostly Cloudy
12:53 PM 42.1 °F 35.2 °F 28.0 °F 58% 30.25 in 10.0 mi WNW 12.7 mph - N/A   Overcast
1:53 PM 43.0 °F 35.1 °F 28.0 °F 56% 30.26 in 10.0 mi West 17.3 mph - N/A   Mostly Cloudy
2:53 PM 44.1 °F 37.1 °F 27.0 °F 51% 30.28 in 10.0 mi NW 15.0 mph 20.7 mph N/A   Overcast
3:53 PM 44.1 °F 37.1 °F 26.1 °F 49% 30.29 in 10.0 mi NW 15.0 mph 19.6 mph N/A   Mostly Cloudy
4:53 PM 45.0 °F 38.2 °F 27.0 °F 49% 30.30 in 10.0 mi NNW 15.0 mph - N/A   Overcast
5:53 PM 45.0 °F 38.5 °F 26.1 °F 48% 30.31 in 10.0 mi NW 13.8 mph 18.4 mph N/A   Mostly Cloudy
6:53 PM 44.1 °F 39.0 °F 26.1 °F 49% 30.32 in 10.0 mi NW 9.2 mph - N/A   Overcast
7:53 PM 44.1 °F 39.0 °F 26.1 °F 49% 30.33 in 10.0 mi NNW 9.2 mph - N/A   Mostly Cloudy
8:53 PM 42.1 °F 39.2 °F 26.1 °F 53% 30.36 in 10.0 mi WNW 4.6 mph - N/A   Mostly Cloudy
9:53 PM 41.0 °F 39.0 °F 28.0 °F 60% 30.39 in 10.0 mi NNW 3.5 mph - N/A   Overcast
10:53 PM 39.0 °F - 27.0 °F 62% 30.41 in 10.0 mi Calm Calm - N/A   Scattered Clouds
11:53 PM 37.0 °F 33.3 °F 25.0 °F 62% 30.43 in 10.0 mi NE 4.6 mph - N/A   Clear